Haines, AK

3:46 PM AKST on December 16, 2017 (GMT -0900)
Haines

Weather History for PAHN - March, 2013

Change the Weather History Date:

Monday, March 11, 2013

  Actual Average Record
Temperature  
Mean Temperature 32 °F -  
Max Temperature 35 °F 32 °F 47 °F (1981)
Min Temperature 30 °F 23 °F 6 °F (2011)
Degree Days  
Heating Degree Days 32    
Moisture  
Dew Point 31 °F    
Average Humidity 94    
Maximum Humidity 100    
Minimum Humidity 82    
Precipitation  
Precipitation 0.27 in - - ()
Sea Level Pressure  
Sea Level Pressure 30.17 in    
Wind  
Wind Speed 6 mph (WNW)    
Max Wind Speed 14 mph    
Max Gust Speed -    
Visibility 3 miles    
Events Fog , Snow    
Averages and records for this station are not official NWS values.
T = Trace of Precipitation, MM = Missing Value Source: NWS Daily Summary

Daily Weather History Graph

Daily Weather History Graph

Search for Another Location

Airport or City:

Trip Planner

Search our weather history database for the weather conditions in past years. The results will help you decide how hot, cold, wet, or windy it might be!

Date:

Astronomy

Mar. 11, 2013 Rise Set
Actual Time 7:28 AM AKDT 6:56 PM AKDT
Civil Twilight 6:48 AM AKDT 7:36 PM AKDT
Nautical Twilight 6:01 AM AKDT 8:24 PM AKDT
Astronomical Twilight 5:11 AM AKDT 9:14 PM AKDT
Moon 6:59 AM AKDT (3/11) 7:32 PM AKDT (3/11)
Length of Visible Light 12h 48m
Length of Day
11h 27m
New Moon, 0% of the Moon is Illuminated
Mar 11
New Moon
Mar 19
First Quarter
Mar 27
Full
Apr 2
Last Quarter
Apr 10
New

Hourly Weather History & Observations

Time (AKDT) Temp. Windchill Dew Point Humidity Pressure Visibility Wind Dir Wind Speed Gust Speed Precip Events Conditions
12:54 AM 35.1 °F 31.0 °F 30.9 °F 85% 30.28 in 10.0 mi East 4.6 mph - 0.00 in   Overcast
1:29 AM 33.8 °F - 32.0 °F 93% 30.27 in 10.0 mi Calm Calm - 0.00 in   Overcast
1:54 AM 35.1 °F 30.1 °F 32.0 °F 89% 30.28 in 10.0 mi East 5.8 mph - 0.00 in   Overcast
2:08 AM 35.6 °F - 32.0 °F 87% 30.26 in 10.0 mi Calm Calm - N/A   Overcast
2:43 AM 33.8 °F 29.6 °F 30.2 °F 87% 30.26 in 2.5 mi WNW 4.6 mph - 0.00 in Snow Light Snow
2:52 AM 33.8 °F - 30.2 °F 87% 30.25 in 1.2 mi Calm Calm - 0.01 in Snow Light Snow
2:54 AM 33.1 °F - 32.0 °F 96% 30.26 in 1.5 mi Calm Calm - 0.01 in Snow Light Snow
3:01 AM 32.0 °F 27.5 °F 30.2 °F 93% 30.26 in 3.0 mi WNW 4.6 mph - 0.00 in Snow Light Snow
3:54 AM 32.0 °F 25.6 °F 30.9 °F 96% 30.25 in 10.0 mi West 6.9 mph - 0.00 in Snow Light Snow
4:11 AM 32.0 °F 25.6 °F 30.2 °F 93% 30.23 in 8.0 mi WNW 6.9 mph - 0.00 in Snow Light Snow
4:54 AM 32.0 °F 24.8 °F 30.9 °F 96% 30.23 in 4.0 mi West 8.1 mph - 0.00 in Snow Light Snow
5:09 AM 30.2 °F 21.3 °F 30.2 °F 100% 30.22 in 2.5 mi WNW 10.4 mph - 0.00 in Snow Light Snow
5:37 AM 30.2 °F 21.9 °F 30.2 °F 100% 30.21 in 1.5 mi WNW 9.2 mph - 0.00 in Snow Light Snow
5:54 AM 30.9 °F 23.5 °F 30.0 °F 96% 30.22 in 1.2 mi WNW 8.1 mph - 0.01 in Snow Light Snow
6:26 AM 30.2 °F 21.9 °F 30.2 °F 100% 30.20 in 1.2 mi West 9.2 mph - 0.01 in Snow Light Snow
6:48 AM 30.2 °F 22.6 °F 30.2 °F 100% 30.20 in 0.8 mi WNW 8.1 mph - 0.01 in Snow Light Snow
6:54 AM 30.9 °F 22.8 °F 30.0 °F 96% 30.21 in 0.8 mi WNW 9.2 mph - 0.02 in Snow Light Snow
7:07 AM 30.2 °F 21.9 °F 30.2 °F 100% 30.20 in 0.8 mi WNW 9.2 mph - 0.02 in Snow Light Snow
7:28 AM 30.2 °F 22.6 °F 30.2 °F 100% 30.19 in 1.0 mi WNW 8.1 mph - 0.03 in Snow Light Snow
7:42 AM 30.2 °F 23.4 °F 30.2 °F 100% 30.19 in 0.8 mi West 6.9 mph - 0.05 in Snow Light Snow
7:47 AM 30.2 °F 22.6 °F 30.2 °F 100% 30.19 in 1.0 mi West 8.1 mph - 0.05 in Snow Light Snow
7:54 AM 30.9 °F 23.5 °F 30.0 °F 96% 30.20 in 1.0 mi WNW 8.1 mph - 0.05 in Snow Light Snow
7:56 AM 30.2 °F 23.4 °F 30.2 °F 100% 30.19 in 0.8 mi WNW 6.9 mph - 0.01 in Snow Light Snow
8:14 AM 30.2 °F 22.6 °F 30.2 °F 100% 30.19 in 1.0 mi West 8.1 mph - 0.03 in Snow Light Snow
8:45 AM 30.2 °F 22.6 °F 30.2 °F 100% 30.18 in 0.8 mi WNW 8.1 mph - 0.05 in Snow Light Snow
8:54 AM 30.9 °F 24.3 °F 30.0 °F 96% 30.19 in 0.5 mi WNW 6.9 mph - 0.06 in Fog , Snow Snow
9:34 AM 30.2 °F 22.6 °F 30.2 °F 100% 30.18 in 1.0 mi WNW 8.1 mph - 0.01 in Snow Light Snow
9:54 AM 30.9 °F 24.3 °F 30.0 °F 96% 30.19 in 1.0 mi WNW 6.9 mph - 0.02 in Snow Light Snow
10:21 AM 30.2 °F 22.6 °F 30.2 °F 100% 30.18 in 0.5 mi WNW 8.1 mph - 0.01 in Fog , Snow Snow
10:34 AM 32.0 °F 25.6 °F 30.2 °F 93% 30.18 in 0.8 mi WNW 6.9 mph - 0.01 in Snow Light Snow
10:54 AM 32.0 °F 24.8 °F 30.9 °F 96% 30.19 in 0.5 mi WNW 8.1 mph - 0.02 in Fog , Snow Snow
11:03 AM 32.0 °F 24.8 °F 30.2 °F 93% 30.17 in 1.0 mi WNW 8.1 mph - 0.00 in Snow Light Snow
11:28 AM 32.0 °F 24.2 °F 30.2 °F 93% 30.17 in 3.0 mi WNW 9.2 mph - 0.00 in Snow Light Snow
11:38 AM 32.0 °F 24.8 °F 30.2 °F 93% 30.17 in 2.0 mi WNW 8.1 mph - 0.00 in Snow Light Snow
11:54 AM 32.0 °F 25.6 °F 30.9 °F 96% 30.18 in 1.2 mi WNW 6.9 mph - 0.00 in Snow Light Snow
12:20 PM 33.8 °F 27.0 °F 30.2 °F 87% 30.16 in 0.8 mi WNW 8.1 mph - 0.01 in Snow Light Snow
12:28 PM 33.8 °F 27.7 °F 30.2 °F 87% 30.16 in 0.8 mi WNW 6.9 mph - 0.01 in Snow Light Snow
12:36 PM 33.8 °F 27.0 °F 30.2 °F 87% 30.16 in 1.0 mi WNW 8.1 mph - 0.01 in Snow Light Snow
12:43 PM 33.8 °F 27.0 °F 30.2 °F 87% 30.16 in 1.0 mi WNW 8.1 mph - 0.01 in Snow Light Snow
12:54 PM 33.1 °F 26.9 °F 30.9 °F 92% 30.17 in 1.8 mi WNW 6.9 mph - 0.01 in Snow Light Snow
1:18 PM 33.8 °F 27.7 °F 30.2 °F 87% 30.16 in 0.8 mi WNW 6.9 mph - 0.01 in Snow Light Snow
1:32 PM 33.8 °F 27.7 °F 30.2 °F 87% 30.15 in 1.0 mi WNW 6.9 mph - 0.01 in Snow Light Snow
1:54 PM 33.1 °F 26.9 °F 30.9 °F 92% 30.15 in 1.2 mi WNW 6.9 mph - 0.01 in Snow Light Snow
2:21 PM 33.8 °F 27.0 °F 32.0 °F 93% 30.14 in 2.0 mi NW 8.1 mph - 0.00 in Snow Light Snow
2:42 PM 33.8 °F 28.6 °F 32.0 °F 93% 30.14 in 3.0 mi WNW 5.8 mph - 0.00 in Snow Light Snow
2:48 PM 33.8 °F 27.7 °F 32.0 °F 93% 30.13 in 1.8 mi WNW 6.9 mph - 0.00 in Snow Light Snow
2:49 PM 33.1 °F 26.9 °F 32.0 °F 96% 30.14 in 1.5 mi WNW 6.9 mph - 0.00 in Snow Light Snow
3:23 PM 33.8 °F 27.7 °F 32.0 °F 93% 30.13 in 2.5 mi WNW 6.9 mph - 0.01 in Snow Light Snow
3:35 PM 33.8 °F 27.7 °F 32.0 °F 93% 30.13 in 1.5 mi WNW 6.9 mph - 0.01 in Snow Light Snow
3:54 PM 33.1 °F 26.9 °F 32.0 °F 96% 30.13 in 1.0 mi WNW 6.9 mph - 0.02 in Snow Light Snow
4:08 PM 33.8 °F 27.0 °F 32.0 °F 93% 30.12 in 1.5 mi West 8.1 mph - 0.00 in Snow Light Snow
4:23 PM 33.8 °F 27.7 °F 32.0 °F 93% 30.11 in 2.0 mi WNW 6.9 mph - 0.00 in Snow Light Snow
4:32 PM 33.8 °F 27.7 °F 32.0 °F 93% 30.11 in 1.8 mi WNW 6.9 mph - 0.00 in Snow Light Snow
4:54 PM 33.1 °F 26.1 °F 32.0 °F 96% 30.12 in 1.2 mi WNW 8.1 mph - 0.00 in Snow Light Snow
5:04 PM 33.8 °F 27.0 °F 32.0 °F 93% 30.11 in 1.0 mi WNW 8.1 mph - 0.00 in Snow Light Snow
5:54 PM 32.0 °F 25.6 °F 32.0 °F 100% 30.11 in 1.2 mi WNW 6.9 mph - 0.01 in Snow Light Snow
6:06 PM 32.0 °F 25.6 °F 32.0 °F 100% 30.10 in 2.0 mi WNW 6.9 mph - 0.00 in Snow Light Snow
6:16 PM 32.0 °F 24.8 °F 32.0 °F 100% 30.10 in 1.2 mi WNW 8.1 mph - 0.00 in Snow Light Snow
6:23 PM 32.0 °F 25.6 °F 32.0 °F 100% 30.10 in 1.0 mi WNW 6.9 mph - 0.00 in Snow Light Snow
6:36 PM 32.0 °F 25.6 °F 32.0 °F 100% 30.09 in 0.8 mi WNW 6.9 mph - 0.01 in Snow Light Snow
6:50 PM 32.0 °F 25.6 °F 32.0 °F 100% 30.09 in 1.2 mi WNW 6.9 mph - 0.01 in Snow Light Snow
6:54 PM 32.0 °F 24.8 °F 32.0 °F 100% 30.10 in 1.5 mi WNW 8.1 mph - 0.02 in Snow Light Snow
7:16 PM 32.0 °F 23.6 °F 30.2 °F 93% 30.09 in 1.2 mi WNW 10.4 mph - 0.01 in Snow Light Snow
7:30 PM 32.0 °F 23.6 °F 30.2 °F 93% 30.08 in 1.5 mi WNW 10.4 mph - 0.01 in Snow Light Snow
7:39 PM 32.0 °F 23.0 °F 30.2 °F 93% 30.08 in 2.5 mi WNW 11.5 mph - 0.01 in Snow Light Snow
7:54 PM 32.0 °F 22.5 °F 30.9 °F 96% 30.09 in 6.0 mi WNW 12.7 mph - 0.01 in Snow Light Snow
8:54 PM 33.1 °F 24.9 °F 30.0 °F 89% 30.09 in 10.0 mi WNW 10.4 mph - 0.00 in   Overcast
9:54 PM 32.0 °F 23.0 °F 30.9 °F 96% 30.08 in 10.0 mi WNW 11.5 mph - N/A   Overcast
10:54 PM 33.1 °F 24.9 °F 30.0 °F 89% 30.09 in 10.0 mi NW 10.4 mph - N/A   Overcast
11:54 PM 33.1 °F 23.4 °F 28.0 °F 82% 30.09 in 10.0 mi WNW 13.8 mph - N/A   Overcast